Location: Aulus
(42.7909°N, 1.3399°E)
Time: 21:43:45
(UTC+00:00)

Cosmos 2208 Rocket - Pass Details

Date: 19 May 2025
Orbit: 752 x 801 km, 74.0° (Epoch: 18 June)

Event Time Altitude Azimuth Distance (km) Brightness Sun altitude
Exits shadow 20:55:01 20° 163° (SSE) 1,742 5.3 -15.3°
Maximum altitude 20:58:16 43° 103° (ESE) 1,109 4.4 -15.7°
Drops below altitude 10° 21:03:17 10° 33° (NNE) 2,348 6.7 -16.3°
Sets 21:05:45 0° 27° (NNE) 3,273 7.6 -16.6°
